DW5321 Paradera AW current weather conditions

sailwx.info

Wind from 090 at 12 knots gusting 18

Air temperature 30.0° C
Dewpoint 25.9° C

Last reported at 2014-Sep-02 20:44 UTC.
Time now 2014-Sep-02 21:45 UTC

Location: N 12°33' W 070°00'.
View on Google Maps.

See reports from other nearby stations

  
Tides and Currents Weather Stations Pressure Air Temp Water Temp Dewpoint Dewpoint Depression Visibility Wind Speed Wind Dir Waves Ship Positions
date/time (UTC)wind fromknots sea level pressurealtimeterstation pressurevisibilityair tempwater tempwave heightnotes
2014-Sep-02 20:44 090 12 gusting 18 30.0
2014-Sep-02 20:29 105 12 gusting 17 30.0
2014-Sep-02 20:14 085 8 gusting 17 30.0
2014-Sep-02 19:59 094 8 gusting 16 30.0
2014-Sep-02 19:44 099 10 gusting 17 30.0
2014-Sep-02 19:29 073 9 gusting 15 30.0
2014-Sep-02 19:14 092 9 gusting 19 30.0
2014-Sep-02 18:59 115 7 gusting 17 30.6
2014-Sep-02 18:44 043 11 gusting 17 30.6
2014-Sep-02 18:29 092 8 gusting 13 30.6
2014-Sep-02 18:14 053 11 gusting 19 30.0
2014-Sep-02 17:59 146 7 gusting 15 30.0
2014-Sep-02 17:44 079 10 gusting 18 30.0
2014-Sep-02 17:14 160 13 gusting 21 31.1
2014-Sep-02 16:59 118 9 gusting 18 31.7
2014-Sep-02 16:44 129 8 gusting 14 31.7
2014-Sep-02 16:29 120 8 gusting 19 31.1
2014-Sep-02 16:14 107 10 gusting 20 30.6
2014-Sep-02 15:59 083 10 gusting 19 30.6
2014-Sep-02 15:44 135 12 gusting 16 30.6
2014-Sep-02 15:29 095 11 gusting 17 30.6
2014-Sep-02 15:14 107 9 gusting 15 30.0
2014-Sep-02 14:59 110 9 gusting 19 30.0
2014-Sep-02 14:44 111 10 gusting 19 30.0
2014-Sep-02 14:29 080 12 gusting 17 30.0
2014-Sep-02 14:14 106 13 gusting 20 29.4
2014-Sep-02 13:59 103 13 gusting 23 30.0
2014-Sep-02 13:44 111 13 gusting 19 29.4
2014-Sep-02 13:29 124 10 gusting 20 29.4
2014-Sep-02 13:14 091 9 gusting 20 29.4
2014-Sep-02 12:59 107 13 gusting 19 29.4
2014-Sep-02 12:44 054 11 gusting 16 29.4
2014-Sep-02 12:29 064 8 gusting 17 28.9
2014-Sep-02 12:14 060 11 gusting 17 28.9
2014-Sep-02 11:59 098 10 gusting 19 28.9
2014-Sep-02 11:44 107 9 gusting 16 28.3
2014-Sep-02 11:29 098 7 gusting 15 28.3
2014-Sep-02 11:14 105 9 gusting 15 27.8
2014-Sep-02 10:59 095 10 gusting 16 27.8
2014-Sep-02 10:44 108 6 gusting 14 27.8
2014-Sep-02 10:28 094 6 gusting 14 27.8
2014-Sep-02 10:13 134 8 gusting 15 27.8
2014-Sep-02 09:58 085 9 gusting 16 27.8
2014-Sep-02 09:43 064 7 gusting 17 27.8
2014-Sep-02 09:28 074 8 gusting 15 27.8
2014-Sep-02 09:13 093 8 gusting 13 27.8
2014-Sep-02 08:58 096 7 gusting 13 27.8
2014-Sep-02 08:43 049 7 gusting 13 27.8
2014-Sep-02 08:28 094 6 gusting 15 27.8
2014-Sep-02 08:13 106 7 gusting 15 27.8
2014-Sep-02 07:58 079 6 gusting 13 27.8
2014-Sep-02 07:44 077 10 gusting 16 27.8
2014-Sep-02 07:29 090 6 gusting 13 27.8
2014-Sep-02 07:14 108 6 gusting 15 27.8
2014-Sep-02 06:59 098 6 gusting 15 27.8
2014-Sep-02 06:44 097 6 gusting 14 27.8
2014-Sep-02 06:29 101 9 gusting 17 27.8
2014-Sep-02 06:14 070 7 gusting 13 27.8
2014-Sep-02 05:59 108 9 gusting 14 27.8
2014-Sep-02 05:44 096 5 gusting 12 27.8
2014-Sep-02 05:29 063 7 gusting 13 27.8
2014-Sep-02 05:14 105 7 gusting 20 27.8
2014-Sep-02 04:59 062 10 gusting 17 27.8
2014-Sep-02 04:43 096 8 gusting 13 27.8
2014-Sep-02 04:28 117 6 gusting 12 27.8
2014-Sep-02 04:13 115 6 gusting 14 28.3
2014-Sep-02 03:58 082 8 gusting 14 27.8
2014-Sep-02 03:43 051 6 gusting 15 27.8
2014-Sep-02 03:28 099 9 gusting 13 28.3
2014-Sep-02 03:13 111 7 gusting 17 28.3
2014-Sep-02 02:58 092 8 gusting 16 28.3
2014-Sep-02 02:43 070 8 gusting 17 28.3
2014-Sep-02 02:28 113 9 gusting 17 28.3
2014-Sep-02 02:13 079 9 gusting 19 28.3
2014-Sep-02 01:58 079 6 gusting 18 28.3
2014-Sep-02 01:43 101 10 gusting 19 28.3
2014-Sep-02 01:28 053 11 gusting 18 28.3
2014-Sep-02 01:13 089 6 gusting 13 28.3
2014-Sep-02 00:58 114 6 gusting 14 28.3
2014-Sep-02 00:43 093 6 gusting 14 28.3
2014-Sep-02 00:28 097 6 gusting 17 28.3
2014-Sep-02 00:13 098 6 gusting 14 28.3
2014-Sep-01 23:58 111 11 gusting 18 28.3
2014-Sep-01 23:43 106 7 gusting 17 28.3
2014-Sep-01 23:28 096 12 gusting 20 28.3
2014-Sep-01 23:13 105 9 gusting 15 28.3
2014-Sep-01 22:58 056 7 gusting 19 28.3
2014-Sep-01 22:43 030 8 gusting 17 28.9
2014-Sep-01 22:27 078 10 gusting 16 28.9
2014-Sep-01 22:12 092 6 gusting 16 28.9
2014-Sep-01 21:57 101 10 gusting 17 29.4
2014-Sep-01 21:42 117 11 gusting 19 29.4
2014-Sep-01 21:27 047 8 gusting 17 30.0
2014-Sep-01 21:12 089 9 gusting 19 30.0
2014-Sep-01 20:57 075 10 gusting 17 29.4
2014-Sep-01 20:42 079 9 gusting 19 29.4
2014-Sep-01 20:27 084 9 gusting 18 30.0
2014-Sep-01 20:12 096 12 gusting 19 30.0
2014-Sep-01 19:57 082 12 gusting 21 30.0
2014-Sep-01 19:42 071 12 gusting 19 30.0
2014-Sep-01 19:27 096 11 gusting 20 30.0
2014-Sep-01 19:12 068 13 gusting 20 30.6
2014-Sep-01 18:57 057 12 gusting 19 30.6
2014-Sep-01 18:42 120 11 gusting 19 30.6
2014-Sep-01 18:27 066 13 gusting 19 31.1
2014-Sep-01 18:12 066 10 gusting 19 31.1
2014-Sep-01 17:57 046 10 gusting 19 30.6
2014-Sep-01 17:42 089 12 gusting 19 31.7
2014-Sep-01 17:27 089 10 gusting 18 31.1
2014-Sep-01 17:12 086 10 gusting 18 30.6
2014-Sep-01 16:57 132 13 gusting 21 30.6
2014-Sep-01 16:42 064 7 gusting 19 30.6
2014-Sep-01 16:27 110 7 gusting 20 30.6
2014-Sep-01 16:12 124 13 gusting 20 30.0
2014-Sep-01 15:57 082 8 gusting 18 31.1
2014-Sep-01 15:42 079 11 gusting 16 30.6
2014-Sep-01 15:27 072 9 gusting 17 30.6
2014-Sep-01 15:12 101 9 gusting 16 30.0
2014-Sep-01 14:57 071 9 gusting 17 30.0
2014-Sep-01 14:42 105 8 gusting 23 30.0
2014-Sep-01 14:27 090 13 gusting 19 30.0
2014-Sep-01 14:12 114 12 gusting 23 30.0
2014-Sep-01 13:57 120 13 gusting 19 29.4
2014-Sep-01 13:42 064 6 gusting 16 29.4
2014-Sep-01 13:27 120 9 gusting 19 29.4
2014-Sep-01 13:12 101 11 gusting 20 29.4
2014-Sep-01 12:57 060 12 gusting 15 29.4
2014-Sep-01 12:42 114 7 gusting 17 28.9
2014-Sep-01 12:27 084 7 gusting 15 28.9
2014-Sep-01 12:12 104 7 gusting 15 28.9
2014-Sep-01 11:57 110 11 gusting 19 28.3
2014-Sep-01 11:42 092 10 gusting 15 28.3
2014-Sep-01 11:27 101 5 gusting 13 28.3
2014-Sep-01 11:12 087 10 gusting 16 27.8
2014-Sep-01 10:57 092 6 gusting 14 27.8
2014-Sep-01 10:42 117 6 gusting 13 27.8
2014-Sep-01 10:27 096 6 gusting 14 27.8
2014-Sep-01 10:12 110 7 gusting 14 27.8
2014-Sep-01 09:57 070 6 gusting 14 27.2
2014-Sep-01 09:43 100 6 gusting 13 27.8
2014-Sep-01 09:29 100 8 gusting 13 27.8
2014-Sep-01 09:11 086 8 gusting 13 27.8
2014-Sep-01 08:56 096 6 gusting 13 27.8
2014-Sep-01 08:41 103 6 gusting 14 27.8
2014-Sep-01 08:26 112 6 gusting 16 27.8
2014-Sep-01 08:12 098 9 gusting 14 27.8
2014-Sep-01 07:56 105 9 gusting 13 27.8
2014-Sep-01 07:41 099 5 gusting 13 27.8
2014-Sep-01 07:26 117 7 gusting 13 27.8
2014-Sep-01 07:11 103 6 gusting 13 27.8
2014-Sep-01 06:56 089 9 gusting 13 27.8
2014-Sep-01 06:41 046 7 gusting 14 27.8
2014-Sep-01 06:26 086 7 gusting 13 27.8
2014-Sep-01 06:11 070 7 gusting 15 27.8
2014-Sep-01 05:56 086 9 gusting 17 27.8
2014-Sep-01 05:41 127 8 gusting 15 27.8
2014-Sep-01 05:26 089 6 gusting 15 27.8
2014-Sep-01 05:11 092 7 gusting 14 27.8
2014-Sep-01 04:56 079 8 gusting 16 27.8
2014-Sep-01 04:41 108 6 gusting 12 27.8
2014-Sep-01 04:26 089 8 gusting 16 27.8
2014-Sep-01 04:11 091 6 gusting 13 27.8
2014-Sep-01 03:56 135 9 gusting 15 27.8
2014-Sep-01 03:41 141 8 gusting 13 27.8
2014-Sep-01 03:26 084 9 gusting 16 28.3
2014-Sep-01 03:11 078 7 gusting 16 27.8
2014-Sep-01 02:56 089 8 gusting 15 28.3
2014-Sep-01 02:41 079 9 gusting 14 28.3
2014-Sep-01 02:26 068 9 gusting 18 28.3
2014-Sep-01 02:11 060 8 gusting 15 28.3
2014-Sep-01 01:56 085 9 gusting 13 28.3
2014-Sep-01 01:41 086 7 gusting 15 28.3
2014-Sep-01 01:26 074 7 gusting 17 28.3
2014-Sep-01 01:11 067 8 gusting 16 28.3
2014-Sep-01 00:56 065 9 gusting 17 28.3
2014-Sep-01 00:41 064 8 gusting 15 28.3
2014-Sep-01 00:26 079 8 gusting 17 28.3
2014-Sep-01 00:11 068 7 gusting 15 28.3
2014-Aug-31 23:56 076 6 gusting 14 28.3
2014-Aug-31 23:41 088 10 gusting 18 28.3
2014-Aug-31 23:26 082 8 gusting 15 28.3
2014-Aug-31 23:11 091 9 gusting 16 28.3
2014-Aug-31 22:56 094 6 gusting 15 28.3
2014-Aug-31 22:41 110 9 gusting 17 28.9
2014-Aug-31 22:26 094 6 gusting 18 28.9
2014-Aug-31 22:11 094 7 gusting 15 29.4
2014-Aug-31 21:56 105 10 gusting 20 29.4
2014-Aug-31 21:41 096 10 gusting 15 29.4
2014-Aug-31 21:26 032 11 gusting 17 30.0
2014-Aug-31 21:11 096 10 gusting 19 30.0